SR9NCI Weather Reports


time (UTC)temp
C
wind
direction
speed
KPH
gust
KPH
rain 1hr
cm
rain 24hr
cm
rain mn
cm
humidity
%
barometer
mb
20260510013712 5 157 0.0 0.0 0.00 0.00 0.00
20260510013311 5 157 0.0 0.0 0.00 0.00 0.00
20260510012910 6 157 0.0 0.0 0.00 0.00 0.00
20260510012508 6 157 0.0 0.0 0.00 0.00 0.00
20260510012107 6 157 0.0 0.0 0.00 0.00 0.00
20260510011704 6 157 0.0 0.0 0.00 0.00 0.00
20260510011303 6 157 0.0 0.0 0.00 0.00 0.00
20260510010902 6 157 0.0 0.0 0.00 0.00 0.00
20260510010500 6 157 0.0 0.0 0.00 0.00 0.00
20260510010051 5 157 0.0 0.0 0.00 0.00 0.00
20260510005649 5 157 0.0 0.0 0.00 0.00 0.00
20260510005248 5 157 0.0 0.0 0.00 0.00 0.00
20260510004847 5 157 0.0 0.0 0.00 0.00 0.00
20260510004444 5 157 0.0 0.0 0.00 0.00 0.00
20260510004043 5 157 0.0 0.0 0.00 0.00 0.00
20260510003641 5 157 0.0 0.0 0.00 0.00 0.00
20260510003240 5 157 0.0 1.6 0.00 0.00 0.00
20260510002838 6 157 0.0 0.0 0.00 0.00 0.00
20260510002436 6 157 0.0 0.0 0.00 0.00 0.00
20260510002028 6 157 0.0 0.0 0.00 0.00 0.00
20260510001627 6 157 0.0 0.0 0.00 0.00 0.00
20260510001226 6 157 0.0 0.0 0.00 0.00 0.00
20260510000823 6 157 0.0 0.0 0.00 0.00 0.00
20260510000422 6 157 1.6 3.2 0.00 0.00 0.00
20260510000021 6 157 1.6 3.2 0.00 0.00 0.00
20260509235619 6 157 0.0 3.2 0.00 0.00 0.00
20260509235217 6 157 0.0 0.0 0.00 0.00 0.00
20260509234816 6 157 0.0 0.0 0.00 0.00 0.00
20260509234414 6 157 0.0 1.6 0.00 0.00 0.00
20260509234006 6 157 0.0 0.0 0.00 0.00 0.00
20260509233603 6 157 0.0 3.2 0.00 0.00 0.00
20260509233202 6 157 0.0 1.6 0.00 0.00 0.00
20260509232801 6 157 1.6 3.2 0.00 0.00 0.00
20260509232359 6 157 3.2 3.2 0.00 0.00 0.00
20260509231957 6 157 0.0 3.2 0.00 0.00 0.00
20260509231555 6 157 0.0 3.2 0.00 0.00 0.00
20260509230753 7 157 1.6 3.2 0.00 0.00 0.00
20260509230351 7 157 0.0 0.0 0.00 0.00 0.00
20260509225942 7 157 0.0 0.0 0.00 0.00 0.00
20260509225540 7 157 0.0 0.0 0.00 0.00 0.00
20260509224739 7 157 0.0 0.0 0.00 0.00 0.00
20260509224335 7 157 0.0 0.0 0.00 0.00 0.00
20260509223933 7 157 0.0 0.0 0.00 0.00 0.00
20260509223531 7 157 0.0 0.0 0.00 0.00 0.00
20260509223130 7 157 0.0 0.0 0.00 0.00 0.00
20260509222728 7 157 0.0 0.0 0.00 0.00 0.00
20260509222326 7 157 0.0 1.6 0.00 0.00 0.00
20260509221918 7 157 1.6 3.2 0.00 0.00 0.00
20260509221516 7 157 0.0 0.0 0.00 0.00 0.00
20260509221114 7 157 0.0 0.0 0.00 0.00 0.00
20260509220713 7 157 0.0 0.0 0.00 0.00 0.00
20260509220311 8 157 0.0 0.0 0.00 0.00 0.00
20260509215910 8 157 0.0 0.0 0.00 0.00 0.00
20260509215508 8 157 0.0 0.0 0.00 0.00 0.00
20260509215105 8 157 0.0 1.6 0.00 0.00 0.00
20260509214704 8 157 1.6 3.2 0.00 0.00 0.00
20260509214303 7 157 1.6 3.2 0.00 0.00 0.00
20260509213855 7 157 0.0 0.0 0.00 0.00 0.00
20260509213452 8 67 1.6 4.8 0.00 0.00 0.00
20260509213051 8 67 1.6 4.8 0.00 0.00 0.00
20260509212650 8 67 0.0 3.2 0.00 0.00 0.00
20260509212248 9 67 3.2 4.8 0.00 0.00 0.00
20260509211846 8 67 4.8 6.4 0.00 0.00 0.00
20260509211444 8 67 3.2 6.4 0.00 0.00 0.00
20260509211043 10 67 4.8 6.4 0.00 0.00 0.00
20260509210642 10 84 4.8 9.7 0.00 0.00 0.00
20260509210239 10 67 4.8 6.4 0.00 0.00 0.00
20260509205831 10 47 6.4 12.9 0.00 0.00 0.00
20260509205429 10 39 4.8 11.3 0.00 0.00 0.00
20260509205028 10 27 6.4 9.7 0.00 0.00 0.00
20260509204627 10 39 6.4 8.0 0.00 0.00 0.00
20260509204224 10 45 6.4 9.7 0.00 0.00 0.00
20260509203823 10 41 6.4 9.7 0.00 0.00 0.00
20260509203421 10 35 6.4 9.7 0.00 0.00 0.00
20260509203020 10 41 8.0 9.7 0.00 0.00 0.00
20260509202618 10 40 6.4 11.3 0.00 0.00 0.00
20260509202216 10 20 8.0 9.7 0.00 0.00 0.00
20260509201808 10 35 6.4 11.3 0.00 0.00 0.00
20260509201407 10 41 6.4 9.7 0.00 0.00 0.00
20260509201004 10 45 4.8 6.4 0.00 0.00 0.00
20260509200604 11 45 6.4 8.0 0.00 0.00 0.00
20260509200202 11 30 6.4 8.0 0.00 0.00 0.00
20260509195801 11 42 6.4 8.0 0.00 0.00 0.00
20260509194957 11 67 4.8 6.4 0.00 0.00 0.00
20260509194556 11 67 3.2 6.4 0.00 0.00 0.00
20260509194154 11 67 4.8 6.4 0.00 0.00 0.00
20260509193746 11 67 4.8 6.4 0.00 0.00 0.00
20260509193343 11 67 4.8 6.4 0.00 0.00 0.00
20260509192942 11 67 4.8 8.0 0.00 0.00 0.00
20260509192541 11 48 6.4 9.7 0.00 0.00 0.00
20260509192139 11 67 4.8 9.7 0.00 0.00 0.00
20260509191737 11 69 6.4 9.7 0.00 0.00 0.00
20260509191335 11 82 4.8 6.4 0.00 0.00 0.00
20260509190934 11 71 6.4 11.3 0.00 0.00 0.00
20260509190533 11 67 6.4 8.0 0.00 0.00 0.00
20260509190130 11 72 6.4 8.0 0.00 0.00 0.00
20260509185722 11 67 6.4 9.7 0.00 0.00 0.00
20260509185320 11 66 6.4 9.7 0.00 0.00 0.00
20260509184919 11 62 4.8 8.0 0.00 0.00 0.00
20260509184517 11 58 6.4 8.0 0.00 0.00 0.00
20260509184115 11 50 8.0 9.7 0.00 0.00 0.00
20260509183714 11 45 8.0 11.3 0.00 0.00 0.00
20260509183312 11 49 8.0 9.7 0.00 0.00 0.00
20260509182911 11 45 4.8 8.0 0.00 0.00 0.00
20260509182509 11 45 4.8 9.7 0.00 0.00 0.00
20260509182107 12 45 6.4 9.7 0.00 0.00 0.00
20260509181700 12 45 4.8 6.4 0.00 0.00 0.00
20260509181258 12 45 3.2 4.8 0.00 0.00 0.00
20260509180856 12 45 4.8 8.0 0.00 0.00 0.00
20260509180455 12 45 3.2 8.0 0.00 0.00 0.00
20260509180053 12 35 6.4 11.3 0.00 0.00 0.00
20260509175652 12 42 4.8 8.0 0.00 0.00 0.00
20260509175249 12 21 1.6 4.8 0.00 0.00 0.00
20260509174848 13 29 4.8 9.7 0.00 0.00 0.00
20260509174447 13 18 6.4 11.3 0.00 0.00 0.00
20260509174045 13 53 4.8 8.0 0.00 0.00 0.00
20260509173636 13 35 6.4 12.9 0.00 0.00 0.00
20260509173234 13 26 9.7 16.1 0.00 0.00 0.00
20260509172833 13 13 3.2 11.3 0.00 0.00 0.00
20260509172432 13 10 4.8 9.7 0.00 0.00 0.00
20260509172030 13 13 9.7 16.1 0.00 0.00 0.00
20260509171628 13 0 6.4 9.7 0.00 0.00 0.00
20260509171226 13 17 6.4 11.3 0.00 0.00 0.00
20260509170825 13 16 8.0 14.5 0.00 0.00 0.00
20260509170021 13 26 8.0 11.3 0.00 0.00 0.00
20260509165613 14 19 6.4 12.9 0.00 0.00 0.00
20260509165211 14 11 6.4 9.7 0.00 0.00 0.00
20260509164810 14 44 3.2 8.0 0.00 0.00 0.00
20260509164408 15 1 4.8 8.0 0.00 0.00 0.00
20260509164006 15 65 1.6 6.4 0.00 0.00 0.00
20260509163605 15 13 1.6 6.4 0.00 0.00 0.00
20260509163203 14 20 4.8 6.4 0.00 0.00 0.00
20260509162801 14 70 6.4 9.7 0.00 0.00 0.00
20260509162400 14 48 8.0 11.3 0.00 0.00 0.00
20260509161958 14 32 9.7 14.5 0.00 0.00 0.00
20260509161550 15 46 4.8 6.4 0.00 0.00 0.00
20260509161149 14 26 11.3 16.1 0.00 0.00 0.00
20260509160746 15 37 4.8 11.3 0.00 0.00 0.00
20260509160345 15 55 4.8 8.0 0.00 0.00 0.00
20260509155943 15 47 4.8 8.0 0.00 0.00 0.00
20260509155543 16 22 9.7 16.1 0.00 0.00 0.00
20260509155140 15 14 1.6 8.0 0.00 0.00 0.00
20260509154738 15 12 4.8 9.7 0.00 0.00 0.00
20260509154337 15 19 4.8 9.7 0.00 0.00 0.00
20260509153935 15 43 4.8 9.7 0.00 0.00 0.00
20260509153526 15 22 9.7 19.3 0.00 0.00 0.00
20260509153124 15 29 4.8 12.9 0.00 0.00 0.00
20260509152723 15 60 4.8 11.3 0.00 0.00 0.00
20260509152322 15 42 6.4 11.3 0.00 0.00 0.00
20260509151919 15 55 6.4 9.7 0.00 0.00 0.00
20260509151518 15 342 3.2 6.4 0.00 0.00 0.00
20260509151116 15 19 1.6 6.4 0.00 0.00 0.00
20260509150715 14 24 6.4 11.3 0.00 0.00 0.00
20260509150313 14 31 11.3 16.1 0.00 0.00 0.00
20260509145910 14 31 9.7 16.1 0.00 0.00 0.00
20260509145502 15 15 4.8 12.9 0.00 0.00 0.00
20260509145101 15 3 8.0 14.5 0.00 0.00 0.00
20260509144700 15 0 6.4 11.3 0.00 0.00 0.00
20260509144257 15 0 4.8 12.9 0.00 0.00 0.00
20260509143856 14 1 4.8 9.7 0.00 0.00 0.00
20260509143455 15 6 8.0 12.9 0.00 0.00 0.00
20260509143052 15 0 6.4 14.5 0.00 0.00 0.00
20260509142650 15 18 9.7 16.1 0.00 0.00 0.00
20260509142249 15 11 1.6 14.5 0.00 0.00 0.00
20260509141847 15 11 6.4 16.1 0.00 0.00 0.00
20260509141439 15 345 8.0 14.5 0.00 0.00 0.00
20260509141036 15 359 4.8 11.3 0.00 0.00 0.00
20260509140635 15 341 6.4 12.9 0.00 0.00 0.00
20260509140234 15 2 3.2 6.4 0.00 0.00 0.00
20260509135833 15 24 6.4 12.9 0.00 0.00 0.00
20260509135432 15 20 6.4 11.3 0.00 0.00 0.00
20260509135029 15 34 8.0 12.9 0.00 0.00 0.00
20260509134628 15 30 6.4 12.9 0.00 0.00 0.00
20260509134227 15 31 8.0 16.1 0.00 0.00 0.00
20260509133825 15 54 9.7 16.1 0.00 0.00 0.00
20260509133416 15 47 9.7 16.1 0.00 0.00 0.00
20260509133014 15 51 8.0 14.5 0.00 0.00 0.00
20260509132613 15 338 4.8 9.7 0.00 0.00 0.00
20260509132212 15 0 9.7 16.1 0.00 0.00 0.00
20260509131809 16 344 4.8 11.3 0.00 0.00 0.00
20260509131408 16 327 3.2 6.4 0.00 0.00 0.00
20260509131006 15 343 6.4 9.7 0.00 0.00 0.00
20260509130605 16 331 4.8 11.3 0.00 0.00 0.00
20260509130203 16 342 3.2 6.4 0.00 0.00 0.00
20260509125801 16 343 3.2 9.7 0.00 0.00 0.00
20260509125353 16 352 6.4 12.9 0.00 0.00 0.00
20260509124951 15 357 3.2 9.7 0.00 0.00 0.00
20260509124550 15 329 3.2 9.7 0.00 0.00 0.00
20260509124148 16 339 4.8 8.0 0.00 0.00 0.00
20260509123746 16 354 4.8 14.5 0.00 0.00 0.00
20260509123345 15 352 3.2 11.3 0.00 0.00 0.00
20260509122943 16 310 3.2 8.0 0.00 0.00 0.00
20260509122541 15 323 6.4 11.3 0.00 0.00 0.00
20260509122140 15 321 6.4 14.5 0.00 0.00 0.00
20260509121739 15 3 8.0 12.9 0.00 0.00 0.00
20260509121331 16 12 6.4 12.9 0.00 0.00 0.00
20260509120928 16 8 3.2 8.0 0.00 0.00 0.00
20260509120527 15 39 6.4 9.7 0.00 0.00 0.00
20260509120126 16 355 3.2 6.4 0.00 0.00 0.00
20260509115724 16 8 1.6 6.4 0.00 0.00 0.00
20260509115322 15 350 4.8 8.0 0.00 0.00 0.00
20260509114920 16 14 4.8 9.7 0.00 0.00 0.00
20260509114519 15 67 0.0 3.2 0.00 0.00 0.00
20260509114118 15 14 6.4 11.3 0.00 0.00 0.00
20260509113716 16 5 3.2 11.3 0.00 0.00 0.00
20260509113307 15 13 8.0 14.5 0.00 0.00 0.00
20260509112905 15 70 9.7 14.5 0.00 0.00 0.00
20260509112103 16 1 1.6 6.4 0.00 0.00 0.00
20260509111700 16 5 3.2 9.7 0.00 0.00 0.00
20260509111259 15 46 4.8 9.7 0.00 0.00 0.00
20260509110857 16 56 4.8 11.3 0.00 0.00 0.00
20260509110456 16 8 6.4 11.3 0.00 0.00 0.00
20260509110054 16 18 6.4 11.3 0.00 0.00 0.00
20260509105652 16 12 3.2 9.7 0.00 0.00 0.00
20260509105244 15 0 1.6 6.4 0.00 0.00 0.00
20260509104843 15 67 3.2 6.4 0.00 0.00 0.00
20260509104440 15 65 9.7 14.5 0.00 0.00 0.00
20260509104040 16 20 8.0 16.1 0.00 0.00 0.00
20260509103638 17 66 6.4 12.9 0.00 0.00 0.00
20260509103237 16 326 3.2 9.7 0.00 0.00 0.00
20260509102835 16 20 0.0 3.2 0.00 0.00 0.00
20260509102433 16 52 3.2 8.0 0.00 0.00 0.00
20260509102032 16 333 3.2 6.4 0.00 0.00 0.00
20260509101630 16 292 3.2 4.8 0.00 0.00 0.00
20260509101222 15 299 4.8 9.7 0.00 0.00 0.00
20260509100819 15 18 4.8 8.0 0.00 0.00 0.00
20260509100418 15 357 4.8 9.7 0.00 0.00 0.00
20260509100017 15 315 0.0 3.2 0.00 0.00 0.00
20260509095615 15 315 1.6 6.4 0.00 0.00 0.00
20260509095213 15 17 3.2 6.4 0.00 0.00 0.00
20260509094811 14 19 4.8 8.0 0.00 0.00 0.00
20260509094410 14 9 6.4 11.3 0.00 0.00 0.00
20260509094009 14 357 4.8 9.7 0.00 0.00 0.00
20260509093606 15 338 0.0 3.2 0.00 0.00 0.00
20260509093158 16 338 1.6 6.4 0.00 0.00 0.00
20260509092756 15 338 3.2 6.4 0.00 0.00 0.00
20260509092356 15 338 1.6 4.8 0.00 0.00 0.00
20260509091955 14 338 4.8 6.4 0.00 0.00 0.00
20260509091551 14 316 3.2 6.4 0.00 0.00 0.00
20260509091151 14 296 4.8 11.3 0.00 0.00 0.00
20260509090749 13 292 3.2 8.0 0.00 0.00 0.00
20260509090348 13 318 6.4 11.3 0.00 0.00 0.00
20260509085946 13 339 3.2 6.4 0.00 0.00 0.00
20260509085544 13 340 4.8 11.3 0.00 0.00 0.00
20260509085136 13 330 3.2 9.7 0.00 0.00 0.00
20260509084734 13 302 4.8 9.7 0.00 0.00 0.00
20260509084332 13 315 4.8 8.0 0.00 0.00 0.00
20260509083931 13 339 6.4 14.5 0.00 0.00 0.00
20260509083529 13 338 3.2 6.4 0.00 0.00 0.00
20260509083128 13 296 3.2 6.4 0.00 0.00 0.00
20260509082725 15 338 1.6 6.4 0.00 0.00 0.00
20260509082324 13 354 6.4 11.3 0.00 0.00 0.00
20260509081923 13 344 4.8 9.7 0.00 0.00 0.00
20260509081521 13 9 3.2 8.0 0.00 0.00 0.00
20260509081113 13 316 4.8 9.7 0.00 0.00 0.00
20260509080309 14 340 3.2 6.4 0.00 0.00 0.00
20260509075908 13 0 1.6 6.4 0.00 0.00 0.00
20260509075506 13 12 3.2 8.0 0.00 0.00 0.00
20260509075103 13 354 6.4 11.3 0.00 0.00 0.00
20260509074701 13 357 3.2 6.4 0.00 0.00 0.00
20260509074300 12 339 6.4 11.3 0.00 0.00 0.00
20260509073859 14 25 3.2 6.4 0.00 0.00 0.00
20260509073456 13 16 8.0 14.5 0.00 0.00 0.00
20260509073048 13 20 6.4 12.9 0.00 0.00 0.00
20260509072646 13 15 6.4 11.3 0.00 0.00 0.00
20260509072245 13 58 11.3 14.5 0.00 0.00 0.00
20260509071843 13 27 11.3 14.5 0.00 0.00 0.00
20260509071441 13 27 6.4 14.5 0.00 0.00 0.00
20260509071040 13 356 3.2 6.4 0.00 0.00 0.00
20260509070637 12 28 4.8 9.7 0.00 0.00 0.00
20260509070236 12 12 6.4 12.9 0.00 0.00 0.00
20260509065834 12 334 6.4 11.3 0.00 0.00 0.00
20260509065432 12 345 6.4 8.0 0.00 0.00 0.00
20260509065024 12 351 4.8 11.3 0.00 0.00 0.00
20260509064623 13 343 3.2 8.0 0.00 0.00 0.00
20260509064220 12 23 6.4 12.9 0.00 0.00 0.00
20260509063820 12 42 9.7 14.5 0.00 0.00 0.00
20260509063418 13 16 3.2 6.4 0.00 0.00 0.00
20260509063017 13 356 1.6 6.4 0.00 0.00 0.00
20260509062614 12 347 3.2 6.4 0.00 0.00 0.00
20260509062213 12 29 8.0 9.7 0.00 0.00 0.00
20260509061812 12 0 1.6 8.0 0.00 0.00 0.00
20260509061410 12 34 8.0 11.3 0.00 0.00 0.00
20260509061001 12 36 12.9 17.7 0.00 0.00 0.00
20260509060559 12 51 8.0 12.9 0.00 0.00 0.00
20260509060158 12 13 6.4 11.3 0.00 0.00 0.00
20260509055757 11 40 11.3 14.5 0.00 0.00 0.00
20260509055355 12 1 4.8 12.9 0.00 0.00 0.00
20260509054953 11 17 6.4 11.3 0.00 0.00 0.00
20260509054551 11 31 6.4 11.3 0.00 0.00 0.00
20260509054150 11 45 6.4 11.3 0.00 0.00 0.00
20260509053749 12 26 1.6 8.0 0.00 0.00 0.00
20260509053346 11 21 1.6 4.8 0.00 0.00 0.00
20260509052938 11 26 1.6 4.8 0.00 0.00 0.00
20260509052536 11 28 3.2 6.4 0.00 0.00 0.00
20260509052136 11 41 8.0 11.3 0.00 0.00 0.00
20260509051734 11 37 6.4 8.0 0.00 0.00 0.00
20260509051332 11 41 6.4 9.7 0.00 0.00 0.00
20260509050930 11 67 3.2 6.4 0.00 0.00 0.00
20260509050528 11 67 0.0 0.0 0.00 0.00 0.00
20260509050126 11 67 3.2 6.4 0.00 0.00 0.00
20260509045725 11 67 1.6 3.2 0.00 0.00 0.00
20260509045323 11 67 0.0 3.2 0.00 0.00 0.00
20260509044916 11 67 0.0 1.6 0.00 0.00 0.00
20260509044514 11 67 0.0 0.0 0.00 0.00 0.00
20260509044112 11 67 0.0 0.0 0.00 0.00 0.00
20260509043711 11 67 0.0 3.2 0.00 0.00 0.00
20260509043309 11 67 0.0 3.2 0.00 0.00 0.00
20260509042908 11 67 0.0 0.0 0.00 0.00 0.00
20260509042505 11 67 0.0 3.2 0.00 0.00 0.00
20260509042104 11 67 0.0 0.0 0.00 0.00 0.00
20260509041703 11 67 0.0 0.0 0.00 0.00 0.00
20260509041301 10 67 0.0 3.2 0.00 0.00 0.00
20260509040852 10 67 1.6 6.4 0.00 0.00 0.00
20260509040450 10 67 0.0 0.0 0.00 0.00 0.00
20260509040049 10 67 1.6 4.8 0.00 0.00 0.00
20260509035648 10 81 3.2 4.8 0.00 0.00 0.00
20260509035245 10 90 1.6 3.2 0.00 0.00 0.00
20260509034844 10 90 1.6 4.8 0.00 0.00 0.00
20260509034041 10 90 1.6 4.8 0.00 0.00 0.00
20260509033640 10 90 1.6 3.2 0.00 0.00 0.00
20260509033237 10 90 1.6 3.2 0.00 0.00 0.00
20260509032829 10 90 0.0 0.0 0.00 0.00 0.00
20260509032428 10 90 1.6 3.2 0.00 0.00 0.00
20260509032027 10 90 1.6 4.8 0.00 0.00 0.00
20260509031624 10 90 1.6 3.2 0.00 0.00 0.00
20260509031223 10 90 1.6 6.4 0.00 0.00 0.00
20260509030822 10 90 0.0 3.2 0.00 0.00 0.00
20260509030420 10 90 0.0 0.0 0.00 0.00 0.00
20260509030018 10 90 4.8 6.4 0.00 0.00 0.00
20260509025617 10 90 4.8 6.4 0.00 0.00 0.00
20260509025215 10 90 3.2 6.4 0.00 0.00 0.00
20260509024807 10 55 3.2 6.4 0.00 0.00 0.00
20260509024404 10 45 3.2 6.4 0.00 0.00 0.00
20260509024003 10 45 3.2 6.4 0.00 0.00 0.00
20260509023602 10 45 3.2 6.4 0.00 0.00 0.00
20260509023200 10 22 3.2 6.4 0.00 0.00 0.00
20260509022759 10 0 0.0 3.2 0.00 0.00 0.00
20260509022356 10 0 1.6 3.2 0.00 0.00 0.00
20260509021955 10 0 1.6 4.8 0.00 0.00 0.00
20260509021554 10 0 0.0 3.2 0.00 0.00 0.00
20260509021152 11 0 0.0 0.0 0.00 0.00 0.00
20260509020743 11 0 0.0 3.2 0.00 0.00 0.00
20260509020341 11 0 0.0 3.2 0.00 0.00 0.00
20260509015539 11 0 0.0 3.2 0.00 0.00 0.00
20260509015136 10 0 0.0 1.6 0.00 0.00 0.00
20260509014735 10 0 0.0 3.2 0.00 0.00 0.00
20260509014334 11 0 0.0 1.6 0.00 0.00 0.00
20260509013933 11 21 0.0 3.2 0.00 0.00 0.00